KE6JJJ-1 Weather Reports


Display with metric or nautical units.
time (UTC)temp
F
wind
direction
speed
MPH
gust
MPH
rain 1hr
in
rain 24hr
in
rain mn
in
humidity
%
barometer
mb
20260506210503 70 270 8.0 11.0 0.00 0.00 0.00 65 1019.6
20260506203503 71 292 6.0 10.0 0.00 0.00 0.00 65 1019.8
20260506200503 70 225 3.0 6.0 0.00 0.00 0.00 65 1020.0
20260506193503 70 248 7.0 10.0 0.00 0.00 0.00 64 1020.1
20260506190503 70 292 5.0 7.0 0.00 0.00 0.00 63 1020.4
20260506183503 70 338 3.0 5.0 0.00 0.00 0.00 63 1020.6
20260506180503 70 180 5.0 7.0 0.00 0.00 0.00 64 1020.6
20260506173503 67 0 0.0 2.0 0.00 0.00 0.00 68 1020.4
20260506170503 66 225 1.0 1.0 0.00 0.00 0.00 71 1020.7
20260506163503 63 315 1.0 3.0 0.00 0.00 0.00 71 1020.6
20260506160503 63 0 2.0 3.0 0.00 0.00 0.00 71 1020.6
20260506153503 61 338 1.0 3.0 0.00 0.00 0.00 75 1020.6
20260506150504 60 202 1.0 2.0 0.00 0.00 0.00 77 1020.5
20260506143503 59 0 0.0 0.0 0.00 0.00 0.00 80 1020.3
20260506140503 57 270 2.0 3.0 0.00 0.00 0.00 82 1020.1
20260506133503 57 270 1.0 3.0 0.00 0.00 0.00 81 1020.0
20260506130504 57 270 4.0 6.0 0.00 0.00 0.00 81 1019.7
20260506123503 57 270 3.0 4.0 0.00 0.00 0.00 81 1019.7
20260506120503 57 292 1.0 2.0 0.00 0.00 0.00 81 1019.4
20260506113503 57 292 1.0 2.0 0.00 0.00 0.00 81 1019.3
20260506110503 57 270 5.0 8.0 0.00 0.00 0.00 84 1019.0
20260506103503 56 248 3.0 6.0 0.00 0.00 0.00 83 1018.9
20260506100503 56 270 2.0 3.0 0.00 0.00 0.00 82 1018.7
20260506093503 56 315 3.0 4.0 0.00 0.01 0.00 81 1018.9
20260506090503 57 315 2.0 2.0 0.00 0.01 0.00 81 1018.7
20260506083503 57 0 0.0 1.0 0.00 0.02 0.00 81 1018.7
20260506080511 57 292 3.0 6.0 0.00 0.04 0.00 81 1018.8
20260506073503 57 270 2.0 3.0 0.00 0.07 0.00 82 1018.5
20260506070504 57 292 2.0 4.0 0.00 0.08 0.00 82 1018.4
20260506060609 58 292 3.0 4.0 0.00 0.09 0.08 81 1018.1
20260506060503 58 292 3.0 4.0 0.00 0.09 0.08 81 1018.1
20260506050503 58 248 5.0 9.0 0.00 0.11 0.08 81 1017.8
20260506043511 58 270 2.0 4.0 0.00 0.13 0.08 82 1017.6
20260506040509 58 270 5.0 8.0 0.00 0.13 0.08 80 1017.0
20260506033503 58 248 3.0 6.0 0.00 0.13 0.08 79 1016.5
20260506030503 59 225 5.0 9.0 0.00 0.13 0.08 77 1016.4
20260506023503 60 225 8.0 10.0 0.00 0.13 0.08 76 1016.2
20260506020503 61 270 4.0 7.0 0.00 0.13 0.08 73 1015.8
20260506013504 62 270 4.0 10.0 0.00 0.13 0.08 71 1015.9
20260506010503 64 270 6.0 9.0 0.00 0.13 0.08 69 1015.8
20260506003503 64 270 8.0 11.0 0.00 0.13 0.08 69 1015.7
20260506000503 63 248 10.0 16.0 0.00 0.13 0.08 71 1015.6
20260505233503 64 292 6.0 11.0 0.00 0.13 0.08 69 1015.7
20260505230503 66 270 7.0 12.0 0.00 0.13 0.08 66 1015.5
20260505223503 64 292 7.0 12.0 0.00 0.13 0.08 69 1015.4
20260505220503 63 292 9.0 12.0 0.00 0.13 0.08 70 1015.6
20260505213503 64 225 9.0 13.0 0.00 0.13 0.08 69 1015.8